Location: Theydon Bois
(51.6750°N, 0.1050°E)
Time: 22:56:43
(UTC+00:00)

Envisat - Pass Details

Date: 11 December 2019
Orbit: 764 x 766 km, 98.1° (Epoch: 21 January)

Event Time Altitude Azimuth Distance (km) Brightness Sun altitude
Rises 18:40:11 0° 193° (SSW) 3,222 6.5 -25.1°
Reaches altitude 10° 18:42:44 10° 204° (SSW) 2,301 5.8 -25.5°
Maximum altitude 18:47:13 31° 266° (W) 1,320 4.8 -26.2°
Drops below altitude 10° 18:51:45 10° 328° (NNW) 2,316 5.8 -26.9°
Sets 18:54:19 0° 339° (NNW) 3,248 6.5 -27.3°
